EWG1K EDDL-EDDS

Flight info

Callsign EWG1K
Flight time 0h 44m
Altitude 23000
Route KUMIK5Z KUMIK L603 BOMBI N850 KRH T128 BADSO BADSO2A
Aircraft A320/M-SDE3FGHIRWY/LB1

Departure

Time 2026-05-07 19:35
Airport Düsseldorf Airport (EDDL)

Arrival

Time 2026-05-07 20:20
Airport Stuttgart Airport (EDDS)
Time Latitude Longitude Altitude Speed Heading
2026-05-07 19:11 51.28108 6.76556 127 ft 0 kts 95°
2026-05-07 19:27 51.28109 6.76541 122 ft 2 kts 103°
2026-05-07 19:27 51.28113 6.76516 125 ft 2 kts 112°
2026-05-07 19:27 51.28120 6.76493 125 ft 2 kts 128°
2026-05-07 19:27 51.28131 6.76473 122 ft 2 kts 136°
2026-05-07 19:28 51.28139 6.76452 123 ft 2 kts 74°
2026-05-07 19:28 51.28134 6.76426 123 ft 2 kts 26°
2026-05-07 19:28 51.28122 6.76420 123 ft 1 kts
2026-05-07 19:28 51.28120 6.76419 123 ft 0 kts
2026-05-07 19:30 51.28122 6.76420 123 ft 2 kts
2026-05-07 19:30 51.28159 6.76426 127 ft 9 kts
2026-05-07 19:30 51.28172 6.76416 127 ft 2 kts 306°
2026-05-07 19:30 51.28156 6.76369 124 ft 8 kts 238°
2026-05-07 19:31 51.28181 6.76260 128 ft 15 kts 322°
2026-05-07 19:31 51.28178 6.76121 125 ft 14 kts 231°
2026-05-07 19:31 51.28122 6.76005 128 ft 12 kts 233°
2026-05-07 19:31 51.28076 6.75907 125 ft 11 kts 232°
2026-05-07 19:32 51.28027 6.75807 124 ft 12 kts 232°
2026-05-07 19:32 51.27980 6.75707 123 ft 11 kts 233°
2026-05-07 19:32 51.27933 6.75609 123 ft 12 kts 232°
2026-05-07 19:32 51.27881 6.75499 120 ft 12 kts 232°
2026-05-07 19:33 51.27838 6.75396 120 ft 10 kts 254°
2026-05-07 19:33 51.27879 6.75318 120 ft 10 kts 335°
2026-05-07 19:33 51.27949 6.75266 115 ft 12 kts 337°
2026-05-07 19:33 51.28003 6.75288 116 ft 9 kts 52°
2026-05-07 19:34 51.28007 6.75298 115 ft 0 kts 54°
2026-05-07 19:34 51.28014 6.75314 116 ft 10 kts 54°
2026-05-07 19:34 51.28221 6.75762 123 ft 87 kts 52°
2026-05-07 19:35 51.28716 6.76793 133 ft 144 kts 53°
2026-05-07 19:35 51.29337 6.78195 571 ft 157 kts 54°
2026-05-07 19:35 51.29984 6.79587 1331 ft 156 kts 53°
2026-05-07 19:35 51.30677 6.81032 1829 ft 174 kts 53°
2026-05-07 19:36 51.31464 6.82670 2197 ft 197 kts 52°
2026-05-07 19:36 51.32342 6.84505 2592 ft 218 kts 52°
2026-05-07 19:36 51.33318 6.86545 3027 ft 244 kts 52°
2026-05-07 19:36 51.34358 6.88797 3767 ft 257 kts 53°
2026-05-07 19:37 51.35178 6.91353 4712 ft 264 kts 76°
2026-05-07 19:37 51.35183 6.94260 5640 ft 270 kts 98°
2026-05-07 19:37 51.34873 6.97274 6600 ft 273 kts 98°
2026-05-07 19:37 51.34487 7.00281 7460 ft 279 kts 109°
2026-05-07 19:38 51.33548 7.02963 8286 ft 284 kts 126°
2026-05-07 19:38 51.32376 7.05529 9166 ft 288 kts 127°
2026-05-07 19:38 51.31164 7.08104 10046 ft 292 kts 128°
2026-05-07 19:38 51.29905 7.10753 10526 ft 310 kts 128°
2026-05-07 19:39 51.28549 7.13600 10789 ft 334 kts 128°
2026-05-07 19:39 51.27103 7.16638 11187 ft 350 kts 128°
2026-05-07 19:39 51.25619 7.19769 11882 ft 356 kts 128°
2026-05-07 19:39 51.24120 7.22937 12635 ft 360 kts 128°
2026-05-07 19:40 51.22607 7.26146 13390 ft 364 kts 128°
2026-05-07 19:40 51.21073 7.29398 14101 ft 368 kts 128°
2026-05-07 19:40 51.19523 7.32676 14744 ft 372 kts 128°
2026-05-07 19:40 51.17952 7.35991 15394 ft 376 kts 128°
2026-05-07 19:41 51.16371 7.39327 16036 ft 380 kts 128°
2026-05-07 19:41 51.14768 7.42702 16683 ft 383 kts 128°
2026-05-07 19:41 51.13150 7.46101 17322 ft 387 kts 128°
2026-05-07 19:41 51.11516 7.49528 17964 ft 391 kts 128°
2026-05-07 19:42 51.09860 7.52995 18570 ft 395 kts 128°
2026-05-07 19:42 51.08197 7.56477 19108 ft 398 kts 128°
2026-05-07 19:42 51.06514 7.60004 19690 ft 401 kts 128°
2026-05-07 19:42 51.04820 7.63547 20013 ft 403 kts 128°
2026-05-07 19:43 51.03122 7.67095 20087 ft 403 kts 128°
2026-05-07 19:43 51.01421 7.70639 20126 ft 405 kts 128°
2026-05-07 19:43 50.99704 7.74209 20675 ft 408 kts 129°
2026-05-07 19:43 50.97977 7.77795 21257 ft 410 kts 129°
2026-05-07 19:44 50.96239 7.81399 21804 ft 413 kts 129°
2026-05-07 19:44 50.94504 7.84990 22312 ft 416 kts 129°
2026-05-07 19:44 50.92718 7.88676 22849 ft 419 kts 129°
2026-05-07 19:44 50.90956 7.92308 23057 ft 421 kts 129°
2026-05-07 19:45 50.89148 7.96030 23096 ft 431 kts 129°
2026-05-07 19:45 50.87315 7.99797 23088 ft 433 kts 129°
2026-05-07 19:45 50.85470 8.03586 23087 ft 434 kts 129°
2026-05-07 19:45 50.83634 8.07366 23086 ft 434 kts 128°
2026-05-07 19:46 50.81859 8.11230 23086 ft 435 kts 126°
2026-05-07 19:46 50.80164 8.15183 23085 ft 435 kts 125°
2026-05-07 19:46 50.78512 8.19203 23085 ft 435 kts 124°
2026-05-07 19:46 50.76891 8.23199 23086 ft 435 kts 124°
2026-05-07 19:47 50.75251 8.27217 23086 ft 435 kts 124°
2026-05-07 19:47 50.73594 8.31213 23088 ft 435 kts 125°
2026-05-07 19:47 50.71919 8.35181 23089 ft 435 kts 126°
2026-05-07 19:47 50.70012 8.38839 23090 ft 432 kts 136°
2026-05-07 19:48 50.67746 8.41958 23093 ft 430 kts 146°
2026-05-07 19:48 50.65213 8.44448 23096 ft 429 kts 153°
2026-05-07 19:48 50.62578 8.46646 23093 ft 429 kts 153°
2026-05-07 19:48 50.59943 8.48860 23092 ft 430 kts 153°
2026-05-07 19:49 50.57308 8.51088 23092 ft 430 kts 153°
2026-05-07 19:49 50.54669 8.53321 23082 ft 430 kts 153°
2026-05-07 19:49 50.52035 8.55547 23084 ft 431 kts 153°
2026-05-07 19:49 50.49394 8.57771 23085 ft 431 kts 153°
2026-05-07 19:50 50.46752 8.59987 23086 ft 431 kts 153°
2026-05-07 19:50 50.44049 8.62014 23086 ft 430 kts 160°
2026-05-07 19:50 50.41215 8.63448 23090 ft 428 kts 165°
2026-05-07 19:50 50.38358 8.64783 23090 ft 428 kts 165°
2026-05-07 19:51 50.35500 8.66117 23080 ft 428 kts 165°
2026-05-07 19:51 50.32643 8.67457 23081 ft 428 kts 165°
2026-05-07 19:51 50.29785 8.68798 23073 ft 428 kts 165°
2026-05-07 19:51 50.26935 8.70130 23069 ft 428 kts 165°
2026-05-07 19:52 50.24079 8.71460 23068 ft 428 kts 165°
2026-05-07 19:52 50.21217 8.72790 23071 ft 428 kts 165°
2026-05-07 19:52 50.18363 8.74118 23073 ft 428 kts 165°
2026-05-07 19:52 50.15505 8.75448 23074 ft 428 kts 165°
2026-05-07 19:53 50.12650 8.76774 23077 ft 428 kts 165°
2026-05-07 19:53 50.09791 8.78099 23078 ft 428 kts 166°
2026-05-07 19:53 50.06924 8.78976 23068 ft 426 kts 175°
2026-05-07 19:53 50.03930 8.79100 23069 ft 423 kts 185°
2026-05-07 19:54 50.01033 8.78450 23070 ft 421 kts 194°
2026-05-07 19:54 49.98178 8.77423 23069 ft 421 kts 194°
2026-05-07 19:54 49.95323 8.76413 23068 ft 421 kts 194°
2026-05-07 19:54 49.92461 8.75417 23066 ft 421 kts 194°
2026-05-07 19:55 49.89597 8.74433 23051 ft 421 kts 194°
2026-05-07 19:55 49.86737 8.73455 23051 ft 421 kts 194°
2026-05-07 19:55 49.83875 8.72481 23049 ft 421 kts 194°
2026-05-07 19:55 49.81015 8.71510 23045 ft 421 kts 194°
2026-05-07 19:56 49.78144 8.70530 23046 ft 421 kts 194°
2026-05-07 19:56 49.75284 8.69548 23050 ft 421 kts 194°
2026-05-07 19:56 49.72386 8.68811 23051 ft 423 kts 187°
2026-05-07 19:56 49.69457 8.68411 23056 ft 423 kts 187°
2026-05-07 19:57 49.66522 8.68018 23058 ft 423 kts 187°
2026-05-07 19:57 49.64582 8.67760 23060 ft 423 kts 187°
2026-05-07 19:57 49.61647 8.67370 23053 ft 423 kts 187°
2026-05-07 19:57 49.58712 8.66979 23057 ft 423 kts 187°
2026-05-07 19:58 49.55774 8.66586 23060 ft 423 kts 187°
2026-05-07 19:58 49.52842 8.66194 23063 ft 423 kts 187°
2026-05-07 19:58 49.49911 8.65804 23065 ft 423 kts 187°
2026-05-07 19:58 49.46975 8.65417 23066 ft 423 kts 187°
2026-05-07 19:59 49.44043 8.65030 23066 ft 423 kts 187°
2026-05-07 19:59 49.41110 8.64640 23058 ft 423 kts 187°
2026-05-07 19:59 49.38184 8.64250 23059 ft 423 kts 187°
2026-05-07 19:59 49.35246 8.63858 23059 ft 423 kts 187°
2026-05-07 20:00 49.32313 8.63468 23056 ft 423 kts 187°
2026-05-07 20:00 49.29383 8.63052 23057 ft 423 kts 187°
2026-05-07 20:00 49.26453 8.62606 23057 ft 423 kts 188°
2026-05-07 20:00 49.23529 8.62142 23020 ft 422 kts 188°
2026-05-07 20:01 49.20627 8.61677 22732 ft 417 kts 188°
2026-05-07 20:01 49.17758 8.61221 22448 ft 414 kts 188°
2026-05-07 20:01 49.14897 8.60770 22179 ft 412 kts 188°
2026-05-07 20:01 49.12055 8.60325 21894 ft 408 kts 187°
2026-05-07 20:02 49.09250 8.59900 21366 ft 403 kts 187°
2026-05-07 20:02 49.06467 8.59487 20814 ft 399 kts 187°
2026-05-07 20:02 49.03721 8.59083 20298 ft 395 kts 187°
2026-05-07 20:02 49.01037 8.58687 19793 ft 391 kts 187°
2026-05-07 20:03 48.98324 8.58540 19281 ft 390 kts 179°
2026-05-07 20:03 48.95618 8.58847 18705 ft 389 kts 178°
2026-05-07 20:03 48.92929 8.59171 18095 ft 388 kts 178°
2026-05-07 20:03 48.90248 8.59583 17485 ft 387 kts 171°
2026-05-07 20:04 48.87724 8.60979 16902 ft 389 kts 152°
2026-05-07 20:04 48.85630 8.63556 16285 ft 391 kts 132°
2026-05-07 20:04 48.84216 8.67078 15697 ft 392 kts 111°
2026-05-07 20:04 48.83830 8.71096 15472 ft 382 kts 85°
2026-05-07 20:05 48.84459 8.74915 15340 ft 368 kts 71°
2026-05-07 20:05 48.84950 8.78644 15208 ft 354 kts 92°
2026-05-07 20:05 48.84376 8.82156 15084 ft 338 kts 120°
2026-05-07 20:05 48.82871 8.84687 15202 ft 312 kts 151°
2026-05-07 20:06 48.80927 8.85613 15440 ft 281 kts 183°
2026-05-07 20:06 48.79161 8.84877 15684 ft 257 kts 214°
2026-05-07 20:06 48.77755 8.83253 15935 ft 253 kts 224°
2026-05-07 20:06 48.76519 8.81392 16045 ft 253 kts 229°
2026-05-07 20:07 48.75423 8.79280 16076 ft 252 kts 238°
2026-05-07 20:07 48.74619 8.76916 16081 ft 262 kts 253°
2026-05-07 20:07 48.74440 8.74035 16083 ft 293 kts 279°
2026-05-07 20:07 48.75222 8.71086 16091 ft 323 kts 302°
2026-05-07 20:08 48.76821 8.68539 15943 ft 343 kts 323°
2026-05-07 20:08 48.79015 8.67077 14857 ft 351 kts 349°
2026-05-07 20:08 48.81463 8.67238 13610 ft 360 kts 15°
2026-05-07 20:08 48.83671 8.69163 12625 ft 373 kts 44°
2026-05-07 20:09 48.85021 8.72407 12394 ft 360 kts 71°
2026-05-07 20:09 48.85543 8.76079 12004 ft 353 kts 82°
2026-05-07 20:09 48.85876 8.79749 11552 ft 349 kts 83°
2026-05-07 20:10 48.86471 8.87106 11050 ft 349 kts 83°
2026-05-07 20:10 48.86794 8.90652 11068 ft 330 kts 82°
2026-05-07 20:10 48.87127 8.94013 11003 ft 315 kts 82°
2026-05-07 20:10 48.87464 8.97259 10742 ft 309 kts 81°
2026-05-07 20:11 48.87806 9.00466 10441 ft 305 kts 81°
2026-05-07 20:11 48.88144 9.03625 10334 ft 302 kts 81°
2026-05-07 20:11 48.88479 9.06771 10229 ft 301 kts 81°
2026-05-07 20:11 48.88811 9.09910 10123 ft 301 kts 81°
2026-05-07 20:12 48.89141 9.13057 9868 ft 303 kts 81°
2026-05-07 20:12 48.89470 9.16233 9425 ft 302 kts 81°
2026-05-07 20:12 48.89790 9.19364 9122 ft 297 kts 81°
2026-05-07 20:12 48.90105 9.22438 9070 ft 291 kts 81°
2026-05-07 20:13 48.90408 9.25394 9070 ft 274 kts 81°
2026-05-07 20:13 48.90515 9.28191 9044 ft 259 kts 97°
2026-05-07 20:13 48.90018 9.30787 8305 ft 261 kts 121°
2026-05-07 20:13 48.88816 9.32874 7345 ft 270 kts 147°
2026-05-07 20:14 48.87156 9.34293 6442 ft 277 kts 154°
2026-05-07 20:14 48.85449 9.35654 5675 ft 277 kts 153°
2026-05-07 20:14 48.83755 9.37013 4980 ft 274 kts 152°
2026-05-07 20:14 48.82123 9.38331 4695 ft 255 kts 152°
2026-05-07 20:15 48.80621 9.39546 4514 ft 235 kts 152°
2026-05-07 20:15 48.79224 9.40678 4396 ft 224 kts 152°
2026-05-07 20:15 48.77852 9.41790 4306 ft 224 kts 152°
2026-05-07 20:15 48.76486 9.42894 4207 ft 222 kts 152°
2026-05-07 20:16 48.75067 9.43732 4096 ft 215 kts 176°
2026-05-07 20:16 48.73679 9.43298 4042 ft 199 kts 210°
2026-05-07 20:16 48.72738 9.41849 3714 ft 194 kts 244°
2026-05-07 20:16 48.72342 9.39956 3415 ft 184 kts 255°
2026-05-07 20:17 48.72007 9.38144 3106 ft 173 kts 255°
2026-05-07 20:17 48.71687 9.36448 2869 ft 162 kts 255°
2026-05-07 20:17 48.71384 9.34858 2633 ft 153 kts 255°
2026-05-07 20:17 48.71096 9.33339 2410 ft 149 kts 254°
2026-05-07 20:18 48.70809 9.31825 2213 ft 150 kts 254°
2026-05-07 20:18 48.70523 9.30308 2006 ft 150 kts 254°
2026-05-07 20:18 48.70233 9.28794 1803 ft 149 kts 254°
2026-05-07 20:18 48.69946 9.27286 1683 ft 150 kts 255°
2026-05-07 20:19 48.69663 9.25774 1475 ft 148 kts 254°
2026-05-07 20:19 48.69382 9.24283 1323 ft 148 kts 255°
2026-05-07 20:19 48.69131 9.22926 1286 ft 110 kts 255°
2026-05-07 20:19 48.68971 9.22075 1288 ft 60 kts 253°
2026-05-07 20:20 48.68973 9.21556 1285 ft 44 kts 285°
2026-05-07 20:20 48.68980 9.21222 1286 ft 30 kts 253°
2026-05-07 20:20 48.68969 9.21166 1287 ft 0 kts 254°
2026-05-07 20:21 48.68965 9.21149 1287 ft 8 kts 254°
2026-05-07 20:21 48.68951 9.21065 1285 ft 8 kts 261°
2026-05-07 20:21 48.68969 9.21000 1289 ft 7 kts 319°
2026-05-07 20:21 48.69006 9.20954 1285 ft 10 kts 299°
2026-05-07 20:22 48.68983 9.20812 1286 ft 18 kts 252°
2026-05-07 20:22 48.68944 9.20596 1287 ft 24 kts 254°
2026-05-07 20:22 48.68896 9.20342 1286 ft 26 kts 253°
2026-05-07 20:22 48.68843 9.20070 1289 ft 28 kts 254°
2026-05-07 20:23 48.68856 9.19880 1285 ft 16 kts 341°
2026-05-07 20:23 48.68884 9.19797 1285 ft 8 kts 253°
2026-05-07 20:23 48.68890 9.19739 1290 ft 5 kts 343°
2026-05-07 20:23 48.68923 9.19729 1289 ft 7 kts 345°
2026-05-07 20:24 48.68952 9.19716 1287 ft 0 kts 345°